This is the latest recevied weather packets stored in our database for station/object W8CEN. If no packets are shown the sender has not sent any weather packets the latest 10 day(s).
| Time | Temp. | Humidity | Pressure | Rain* | Wind** | Luminosity | Snow |
|---|---|---|---|---|---|---|---|
| 1777906793 | 19.44° C | 51% | 985.1 hPa | 0 mm | - | 689 W/m² | - |
| 1777906490 | 18.89° C | 51% | 985.1 hPa | 0 mm | - | 670 W/m² | - |
| 1777906186 | 18.89° C | 51% | 985.2 hPa | 0 mm | - | 665 W/m² | - |
| 1777905883 | 19.44° C | 52% | 985.1 hPa | 0 mm | - | 649 W/m² | - |
| 1777905579 | 18.89° C | 52% | 985.2 hPa | 0 mm | - | 635 W/m² | - |
| 1777905277 | 18.89° C | 51% | 985.2 hPa | 0 mm | - | 620 W/m² | - |
| 1777904974 | 18.33° C | 55% | 985.1 hPa | 0 mm | - | 605 W/m² | - |
| 1777904671 | 18.33° C | 53% | 985.2 hPa | 0 mm | - | 586 W/m² | - |
| 1777904368 | 17.78° C | 55% | 985.6 hPa | 0 mm | - | 571 W/m² | - |
| 1777904065 | 17.78° C | 54% | 985.5 hPa | 0 mm | - | 556 W/m² | - |
| 1777903762 | 17.78° C | 55% | 985.5 hPa | 0 mm | - | 544 W/m² | - |
| 1777903458 | 17.78° C | 56% | 985.7 hPa | 0 mm | - | 529 W/m² | - |
| 1777903155 | 17.78° C | 54% | 985.5 hPa | 0 mm | - | 517 W/m² | - |
| 1777902851 | 17.22° C | 55% | 985.5 hPa | 0 mm | - | 496 W/m² | - |
| 1777902549 | 17.22° C | 54% | 985.6 hPa | 0 mm | - | 478 W/m² | - |
| 1777902245 | 16.67° C | 57% | 985.6 hPa | 0 mm | - | 458 W/m² | - |
| 1777901943 | 16.67° C | 56% | 985.5 hPa | 0 mm | - | 441 W/m² | - |
| 1777901641 | 16.67° C | 55% | 985.7 hPa | 0 mm | - | 437 W/m² | - |
| 1777901338 | 16.11° C | 57% | 985.8 hPa | 0 mm | - | 418 W/m² | - |
| 1777901035 | 16.11° C | 59% | 986.1 hPa | 0 mm | - | 388 W/m² | - |
| 1777900733 | 15.56° C | 58% | 985.9 hPa | 0 mm | - | 382 W/m² | - |
| 1777900429 | 15.56° C | 60% | 985.9 hPa | 0 mm | - | 363 W/m² | - |
| 1777900126 | 15.56° C | 59% | 986.1 hPa | 0 mm | - | 347 W/m² | - |
| 1777899823 | 15.56° C | 59% | 986.2 hPa | 0 mm | - | 330 W/m² | - |
| 1777899520 | 15° C | 63% | 986.1 hPa | 0 mm | - | 310 W/m² | - |
* Rain latest hour (hover to see other rain measurements)
** Current wind speed in m/s (hover to see current wind gust speed)